Home   Weather   Pécs   Past weeks

Flag for Hungary Past Weather in Pécs, Hungary — Yesterday and Last 2 Weeks

Now
71 °F

Mild.


Feels Like: 74 °F
Forecast: 66 / 87 °F
Wind: No wind

Location: Pecs / Pogany

Current Time: Jul 23, 2017 at 7:10:06 am

Latest Report: Jul 23, 2017 at 6:00 am


Visibility: N/A

Pressure: 29.93 "Hg

Humidity: 69%

Dew Point: 60 °F

Location of PécsLocation

Past Weather in Pécs — Graph

°F

Pécs Temperature Yesterday

Maximum temperature yesterday: 90 °F (at 5:00 pm)
Minimum temperature yesterday: 68 °F (at 6:00 am)
Average temperature yesterday: 79 °F

High & Low Weather Summary for the Past Weeks

 TemperatureHumidityPressure
High95 °F (Jul 10, 3:00 pm)95% (Jul 12, 6:00 am)30.19 "Hg (Jul 12, 6:00 am)
Low55 °F (Jul 14, 4:00 am)29% (Jul 17, 5:00 pm)29.77 "Hg (Jul 10, 7:00 pm)
Average74 °F55%29.97 "Hg
* Reported Jul 8 1:00 am — Jul 23 1:00 am, Pécs. Weather by CustomWeather, © 2017

Note: Actual official high and low records may vary slightly from our data, if they occured in-between our weather recording intervals... More about our weather records

Advertising

Pécs Weather History for the Previous 24 Hours

Scroll right to see more
 ConditionsComfort  
Time TempWeatherWind HumidityBarometerVisibility
1:00 am
Sun, Jul 23
73 °FMild.2 mph68%29.93 "HgN/A
12:00 am75 °FMild.2 mph64%29.93 "HgN/A
11:00 pm
Sat, Jul 22
77 °FMild.3 mph61%29.93 "HgN/A
10:00 pm79 °FWarm.2 mph57%29.92 "HgN/A
9:00 pm82 °FWarm.2 mph51%29.89 "HgN/A
8:00 pm85 °FWarm.2 mph49%29.89 "HgN/A
7:00 pm88 °FPassing clouds.2 mph41%29.88 "Hg37 mi
6:00 pm90 °FPassing clouds.3 mph40%29.87 "Hg31 mi
5:00 pm90 °FPassing clouds.2 mph37%29.88 "Hg37 mi
4:00 pm89 °FScattered clouds.2 mph44%29.90 "Hg37 mi
3:00 pm87 °FScattered clouds.5 mph46%29.92 "Hg37 mi
2:00 pm86 °FScattered clouds.6 mph46%29.92 "Hg37 mi
1:00 pm82 °FPartly sunny.6 mph55%29.94 "Hg37 mi
12:00 pm80 °FOvercast.7 mph54%29.95 "Hg37 mi
11:00 am78 °FOvercast.5 mph61%29.95 "Hg37 mi
10:00 am75 °FOvercast.1 mph67%29.96 "Hg37 mi
9:00 am77 °FOvercast.No wind58%29.97 "Hg37 mi
8:00 am75 °FOvercast.1 mph61%29.96 "Hg37 mi
7:00 am71 °FMild.1 mph67%29.94 "HgN/A
Weather by CustomWeather, © 2017

See weather overviewHow to use our weather pages